Location: Killam
(52.7910°N, 111.8608°W)
Time: 08:28:58
(UTC+00:00)

AO-91 - Visible Passes

Search period start: 02 December 2023 00:00
Search period end: 12 December 2023 00:00
Orbit: 445 x 755 km, 97.6° (Epoch: 01 December)

Date Brightness Start Highest point End Pass type
(mag) Time Alt. Az. Time Alt. Az. Time Alt. Az.
04 Dec ? 14:10:02 10° ENE 14:11:43 12° NE 14:13:23 10° NNE visible
05 Dec ? 14:20:14 10° E 14:22:41 14° NE 14:25:08 10° NNE visible
06 Dec ? 14:30:38 10° E 14:33:39 16° NE 14:36:38 10° NNE visible
07 Dec ? 14:41:09 10° E 14:44:37 19° ENE 14:48:01 10° NNE visible
